Content
SEND FEEDBACK

Daily
Averages
Monthly
Summary
United States of America

WILMINGTON, NORTH CAROLINA


Home > North America > United States > North Carolina
Elevation: 72 feet     Latitude: 34 16N     Longitude: 077 54W

WEATHER
 
SELECT A DAY
Number of Records: 209,081;   Date Range: 1/1/95 - 9/16/14
 
SHARE

PRINT THIS DATA

[ ← Previous Day ]
WEATHER ALMANAC - MAY 17, 2013
[ Next Day → ]
[ °C ]   °F
Weather ElementAverageHighLow
Temperature77.4 °F90 °F (3:53 pm)68 °F (4:53 am)
Dewpoint61.2 °F64 °F (1:53 am)57 °F (1:53 pm)
Humidity60 %84 % (2:53 am)34 % (3:53 pm)
Barometer30.07 in30.12 in (10:53 pm)30.01 in (1:53 am)
Wind Speed7.4 mph13.8 mph (5:53 pm)
Weather ElementAverage
Visibility10 mi
Wind DirectionSW (225.7 °)

Weather ElementTotal
Precipitation---
Cooling Degree Days14 (Base 65)
Growing Degree Days29 (Base 50)
Averaged from 23 records on May 17, 2013
WEATHER CONDITIONS BREAKOUT
WIND DIRECTION BREAKOUT
WEATHER BY HOUR - MAY 17, 2013
[ °C ]   °F
Local TimeTemperatureDewpointHumidityBarometerVisibilityWind DirectionWind SpeedGust SpeedPrecipitationEventsConditions
1:53 AM71.1 °F64.0 °F78 %30.01 in10.0 miWSW (250°)6.9 mphClear
2:53 AM69.1 °F64.0 °F84 %30.01 in10.0 miWSW (250°)5.8 mphClear
3:53 AM69.1 °F64.0 °F84 %30.02 in10.0 miWSW (250°)6.9 mphClear
4:53 AM68.0 °F63.0 °F84 %30.04 in10.0 miWSW (250°)5.8 mphClear
5:53 AM68.0 °F63.0 °F84 %30.05 in10.0 miWSW (240°)8.1 mphClear
6:53 AM69.1 °F62.1 °F78 %30.07 in10.0 miWSW (250°)8.1 mphClear
7:53 AM71.6 °F62.6 °F73 %30.09 in10.0 miWest (270°)10.4 mphClear
8:53 AM75.9 °F59.0 °F56 %30.10 in10.0 miWest (270°)10.4 mphClear
9:53 AM80.1 °F62.1 °F54 %30.09 in10.0 miWest (260°)10.4 mphClear
10:53 AM82.0 °F63.0 °F52 %30.10 in10.0 miVariable5.8 mphClear
11:53 AM84.0 °F60.1 °F44 %30.09 in10.0 miWest (280°)4.6 mphClear
12:53 PM86.0 °F60.1 °F41 %30.08 in10.0 miNW (320°)4.6 mphClear
1:53 PM87.1 °F57.0 °F36 %30.07 in10.0 miCalmClear
2:53 PM88.0 °F57.0 °F35 %30.06 in10.0 miNW (320°)8.1 mphClear
3:53 PM90.0 °F57.9 °F34 %30.05 in10.0 miWNW (300°)8.1 mphPartly Cloudy
4:53 PM89.1 °F60.1 °F38 %30.04 in10.0 miSSW (210°)6.9 mphClear
5:53 PM84.9 °F63.0 °F48 %30.04 in10.0 miSSW (200°)13.8 mphClear
6:53 PM82.0 °F62.1 °F51 %30.05 in10.0 miSouth (190°)11.5 mphClear
7:53 PM78.1 °F61.0 °F56 %30.07 in10.0 miSW (220°)10.4 mphClear
8:53 PM73.9 °F62.1 °F66 %30.08 in10.0 miSW (220°)6.9 mphClear
9:53 PM72.0 °F61.0 °F68 %30.10 in10.0 miSSW (210°)4.6 mphClear
10:53 PM71.1 °F60.1 °F68 %30.12 in10.0 miSSW (210°)8.1 mphClear
11:53 PM71.1 °F60.1 °F68 %30.12 in10.0 miSW (220°)4.6 mphClear
Hourly data recorded from KILM, located miles away from Wilmington, North Carolina







STORIES FROM OUR PARTNERS